Temp
32 32 31 31 32 33 34 33 33 33 32 32 30 28 28 27 27 30 31 30 30 28 28 28 27 28 28 26 25 25 25 25 24 25 24 25 25 25 24 24 24 24 24 24 24 24 23 23 23 22 22 22 22 22 22 21 21 22 21 21 21 21 21 21 21 21 20 20 20 20 20 19 19 19 19 18 18 18 18 18 18 18 18 18 18 17
32 30 30 33 33 32 32 32 32 32 33 33 30 28 28 27 28 31 32 31 30 29 28 29 28 28 28 26 25 25 24 25 25 25 25 25 25 25 25 25 24 24 24 24 23 23 23 22 22 22 22 22 22 21 21 22 22 22 21 21 21 21 21 21 21 21 20 20 20 20 20 19 19 19 19 18 18 18 18 18 18 18 18 17 17 17
30 29 31 33 31 30 31 32 32 32 33 32 30 28 26 27 29 30 31 31 30 29 29 29 28 28 28 26 25 25 25 25 25 25 25 25 25 25 25 25 24 24 24 23 23 22 22 22 22 22 22 22 22 22 21 22 22 21 21 21 21 21 21 22 21 21 21 20 20 20 20 19 19 18 18 18 18 18 18 18 18 17 17 17 17 17
27 29 33 32 30 30 31 31 32 32 31 31 30 27 25 29 29 27 29 30 30 29 28 29 28 28 28 26 26 25 25 26 26 26 26 25 25 25 25 25 24 24 23 23 23 22 22 22 21 21 21 22 22 22 21 22 22 22 21 21 21 21 21 21 21 21 21 20 20 20 19 19 19 18 18 18 18 18 18 18 18 17 17 17 17 16
28 31 32 31 31 32 31 31 32 31 29 30 31 28 27 30 30 28 29 29 29 28 28 28 26 26 28 27 27 26 25 26 26 26 26 26 26 25 25 25 24 24 23 22 22 22 21 21 21 21 22 22 22 22 21 22 22 22 22 21 21 21 21 22 21 21 21 20 20 19 19 19 18 18 18 18 18 18 18 18 17 17 17 16 16 16
30 31 30 31 32 31 31 31 31 30 28 28 31 32 31 33 32 30 29 28 26 25 28 28 23 23 26 26 27 26 26 26 26 26 26 26 26 25 25 24 23 23 23 23 22 22 21 21 21 21 21 21 21 21 22 22 22 22 22 21 21 21 21 21 21 21 21 20 20 20 19 18 18 18 18 18 17 17 18 17 17 16 16 16 16 16
31 31 31 32 32 31 31 30 30 32 28 25 30 33 33 34 32 29 29 27 23 23 28 30 24 22 25 26 27 26 26 26 26 26 25 26 25 25 25 24 23 23 22 22 22 22 21 21 21 21 21 21 21 21 21 22 22 22 22 21 21 21 21 21 21 21 20 20 20 20 19 19 18 18 17 17 17 17 17 17 17 16 16 16 16 16
31 32 31 31 31 31 30 29 31 32 28 26 31 34 34 34 32 30 29 26 25 25 27 29 26 23 23 26 26 25 26 26 26 26 26 26 25 25 25 24 23 23 22 22 22 22 21 21 21 21 21 21 21 21 21 21 21 21 21 21 21 21 21 21 20 20 20 20 20 20 19 19 18 18 17 17 17 17 17 17 16 16 16 16 16 16
31 32 32 32 31 30 29 30 32 32 30 30 33 34 33 33 33 32 29 26 27 26 23 25 26 23 22 25 25 24 26 26 26 27 26 26 25 25 25 24 23 22 22 22 22 22 21 21 21 21 21 21 21 21 21 21 21 21 21 21 21 21 21 20 20 20 20 19 20 20 19 18 18 18 17 17 17 17 17 16 16 16 16 16 16 16
31 31 32 32 31 30 31 32 32 32 33 33 33 33 32 32 31 30 28 26 25 24 22 23 25 23 22 25 25 24 25 26 27 27 27 27 25 25 25 23 22 22 22 22 22 22 21 21 21 21 21 20 20 21 21 21 20 21 21 21 21 20 20 20 20 20 19 19 20 20 19 19 18 17 17 17 17 17 17 16 16 16 16 16 16 16
31 30 30 31 32 32 33 33 31 32 33 33 33 33 32 31 30 29 28 26 24 22 23 24 25 24 22 24 26 26 28 29 28 28 28 28 26 25 24 23 22 22 22 22 22 21 21 21 21 21 20 20 20 20 20 20 20 21 21 20 21 20 20 20 20 20 19 19 20 20 20 19 18 17 17 17 17 17 17 16 16 16 16 16 16 16
31 30 30 32 33 33 33 32 31 31 31 32 33 32 29 27 27 26 25 25 23 22 24 24 25 24 22 24 28 28 29 29 29 29 29 28 26 24 24 22 22 22 21 22 21 21 21 21 21 20 20 20 20 20 20 20 20 20 20 20 20 20 19 20 19 19 19 20 20 20 19 19 18 18 17 17 17 17 16 16 16 16 16 16 16 16
30 31 31 31 32 32 32 32 30 30 31 31 31 28 24 23 23 23 22 23 22 22 24 24 25 24 22 26 31 30 29 28 28 29 29 28 26 24 23 22 21 21 21 21 21 21 21 21 20 20 20 20 20 20 20 20 19 18 18 19 20 19 19 19 19 19 20 20 20 20 19 19 18 18 18 17 17 17 16 16 16 16 16 16 16 16
27 30 31 31 32 32 33 31 28 28 30 30 29 26 23 22 22 22 22 22 22 23 23 24 25 23 23 28 32 31 29 29 28 28 29 29 26 24 22 21 21 21 21 21 21 21 21 21 20 20 20 20 20 19 19 19 18 17 18 19 20 19 19 19 19 20 20 20 19 19 19 18 18 18 18 17 17 17 16 16 16 16 16 16 16 16
23 25 29 31 31 32 33 32 31 31 31 31 32 29 25 23 23 22 22 22 23 23 23 24 24 23 23 28 30 29 27 27 27 27 28 28 25 23 22 21 21 21 21 21 21 21 21 21 20 20 20 19 18 18 18 17 17 18 19 19 20 19 19 19 19 20 20 19 19 19 18 18 18 18 18 17 17 16 16 16 16 16 16 16 16 16
22 24 31 32 30 31 33 33 33 33 31 29 31 29 26 26 26 23 22 23 23 22 22 23 23 25 27 29 27 26 26 25 25 26 27 25 23 22 21 21 21 21 21 21 21 21 21 20 20 20 19 18 18 18 18 17 18 19 18 19 20 19 19 19 20 20 19 19 18 18 18 18 18 18 17 17 16 16 16 16 16 16 16 16 16 16
22 24 32 32 30 32 33 33 34 32 30 28 27 27 27 30 30 24 22 23 22 22 23 22 23 25 27 29 27 26 26 25 24 25 25 23 22 21 21 21 21 21 21 21 21 21 21 20 20 19 18 18 18 18 18 17 19 19 18 19 19 19 19 19 19 19 19 18 18 18 18 18 18 17 17 16 16 16 16 16 16 16 16 16 15 15
25 25 31 33 32 33 31 32 34 33 32 30 26 28 29 30 30 26 23 23 22 22 23 22 23 24 24 26 28 27 27 25 23 23 22 22 21 21 20 21 21 21 21 21 21 21 21 20 19 19 18 18 18 18 18 17 18 18 18 19 19 19 19 19 19 19 18 18 18 18 18 18 17 17 16 16 16 16 16 16 16 16 16 16 15 15
27 25 29 32 32 32 31 31 31 31 33 31 29 31 30 25 25 25 23 23 22 22 22 22 22 22 22 25 28 29 28 25 22 21 21 21 21 20 20 21 21 21 21 21 21 20 20 20 19 18 18 18 18 18 18 18 18 18 18 19 19 18 18 18 18 18 18 18 18 17 17 17 17 17 16 16 16 16 16 16 16 16 16 16 15 15
30 25 25 30 32 31 32 31 28 28 31 31 31 32 30 27 25 24 24 24 23 22 22 22 22 23 24 26 28 29 28 24 21 21 21 21 21 20 20 21 21 21 21 21 21 20 20 20 19 18 18 18 18 17 17 17 17 18 18 18 18 18 18 18 18 18 18 17 17 17 17 17 17 16 16 16 16 16 16 16 16 16 16 16 15 15
31 27 24 29 32 29 30 31 29 29 30 30 29 28 28 28 27 26 25 24 23 23 22 22 22 24 26 26 26 27 27 23 21 21 21 20 20 20 20 21 21 21 21 20 21 20 20 19 18 18 17 17 17 17 17 17 17 17 17 17 18 17 17 18 18 18 17 17 17 17 17 17 16 16 16 16 16 16 16 17 17 16 16 16 16 16
30 28 24 26 28 27 29 33 33 32 32 31 30 28 28 28 26 25 23 23 24 23 22 23 22 24 26 24 24 26 25 22 21 21 21 20 20 20 21 21 21 21 21 20 20 20 20 19 18 17 17 17 17 17 17 17 17 17 17 17 17 17 17 18 17 17 17 17 17 17 17 17 16 16 16 16 16 16 16 16 16 16 16 16 16 16
31 30 25 24 27 29 32 32 29 29 31 32 32 31 31 30 27 24 22 23 23 22 22 22 22 25 26 23 22 24 23 22 21 21 21 20 21 21 21 21 21 21 21 20 20 20 19 19 18 17 17 17 17 17 16 17 17 16 16 16 17 17 17 18 17 17 17 17 17 17 17 16 16 16 16 16 16 16 16 16 16 16 16 16 16 16
31 30 25 24 28 31 32 32 29 29 31 31 31 31 31 30 29 27 26 25 24 22 23 22 22 25 25 22 22 22 22 22 21 21 21 20 21 21 21 21 21 21 21 20 20 20 19 18 17 17 17 16 16 16 16 16 16 16 16 16 17 17 17 17 17 17 17 17 17 17 16 16 16 16 16 16 16 16 16 16 16 16 16 16 16 16
29 28 25 23 24 26 28 29 29 30 31 31 31 31 30 30 31 29 27 26 24 22 23 23 22 25 25 22 22 22 21 21 21 21 21 21 21 21 21 21 21 20 20 20 20 19 18 18 17 17 17 16 16 16 16 16 16 16 16 16 17 17 17 17 17 17 17 17 17 16 16 16 16 16 16 16 16 16 16 16 16 16 16 16 16 16
30 28 27 24 22 23 23 24 25 27 30 30 30 30 29 29 30 28 25 24 23 22 23 23 23 25 25 23 22 22 22 22 21 21 21 21 21 21 21 21 21 20 20 20 19 18 18 18 17 17 17 16 16 16 15 15 15 16 16 16 17 17 17 17 17 17 17 17 16 16 16 16 16 16 16 16 16 16 16 16 16 17 17 17 17 16
31 30 29 27 25 24 25 26 28 29 28 28 29 29 29 29 31 29 25 24 24 23 22 24 25 25 26 24 23 23 22 22 22 21 21 21 21 21 21 21 20 20 20 20 19 18 18 18 18 17 17 16 16 16 15 15 16 16 16 16 16 17 17 17 17 17 17 17 17 16 16 16 16 16 16 16 16 16 16 17 17 17 17 17 17 17
32 28 28 29 29 28 29 29 30 30 29 28 28 29 29 29 31 29 25 25 25 23 23 25 25 25 25 25 23 23 23 22 22 21 21 21 21 21 21 21 20 20 20 20 19 18 18 18 17 17 17 16 16 16 15 16 16 16 16 16 17 17 17 17 17 17 17 17 17 16 16 16 16 16 16 16 16 16 16 16 17 17 17 17 17 17
33 28 27 29 29 29 30 29 29 30 30 29 28 28 29 30 31 29 27 26 27 25 24 26 25 25 26 24 23 23 23 22 22 22 22 22 21 21 21 21 20 20 20 19 19 19 18 18 17 17 17 17 16 16 16 16 16 16 16 16 17 17 17 17 17 17 17 17 17 17 16 16 16 16 16 16 16 16 16 16 16 16 16 16 16 16
31 29 29 30 29 28 29 29 30 30 29 28 28 28 29 30 30 29 28 27 27 26 26 25 25 26 27 24 24 24 23 23 23 22 22 22 21 21 21 21 20 20 20 20 19 19 18 18 18 17 17 17 16 16 16 16 16 16 16 16 17 17 17 17 17 17 17 17 17 17 17 16 17 16 16 17 16 16 16 16 16 16 16 16 16 16
30 28 29 31 27 26 29 30 29 29 29 28 27 28 29 29 29 29 28 27 27 26 26 24 25 27 26 23 24 24 23 23 22 22 22 21 21 21 21 20 20 20 20 20 19 19 18 18 18 17 17 17 17 16 16 16 15 16 16 16 16 17 17 17 17 17 17 17 17 17 17 16 17 16 17 17 16 16 16 16 16 16 16 16 16 16
32 28 29 30 26 23 27 29 28 29 29 27 27 28 28 28 28 28 28 27 27 27 26 24 25 28 26 23 23 24 23 22 22 22 22 21 21 21 21 21 20 20 20 20 19 19 18 18 18 17 17 17 17 17 16 16 15 15 16 16 17 17 17 17 17 17 17 17 17 16 17 16 16 17 16 17 16 16 16 16 16 16 16 16 16 16
33 31 28 27 24 23 26 27 27 28 26 24 26 28 28 29 28 28 28 28 27 27 27 26 26 27 25 23 23 23 23 22 22 22 22 22 21 21 21 21 21 20 20 20 19 19 18 18 18 18 18 17 17 17 16 16 16 16 16 17 17 17 17 17 17 17 16 16 16 16 17 17 16 16 16 17 16 16 16 16 16 16 16 17 16 16
31 32 29 27 24 23 25 26 26 25 22 24 27 28 28 30 29 29 29 28 27 27 27 27 26 24 22 23 23 23 23 23 23 22 23 22 22 21 21 21 21 21 20 20 19 19 18 18 18 18 18 18 17 17 17 16 16 16 17 17 17 17 17 17 17 17 16 16 16 16 17 17 17 16 16 17 16 16 16 16 16 16 16 17 17 17
32 31 29 27 25 23 24 25 23 22 23 27 29 27 26 27 28 29 29 28 27 26 26 27 26 23 22 23 23 22 23 23 23 23 23 22 22 22 21 21 21 21 20 20 19 19 19 18 18 18 18 18 17 17 16 16 16 16 16 16 16 16 17 17 17 16 16 16 16 17 17 17 17 16 16 16 16 16 16 16 16 17 17 17 17 16
33 31 28 26 25 23 23 23 22 23 26 29 29 27 26 27 28 28 28 28 28 27 27 28 26 22 22 23 22 22 23 23 23 23 23 22 22 22 22 21 21 21 20 20 19 19 19 19 18 18 18 18 18 17 17 17 17 16 16 16 16 16 17 17 16 16 16 16 17 17 17 17 17 16 16 16 16 16 16 16 16 17 17 17 17 16
33 32 29 26 24 24 23 22 23 24 25 27 29 28 28 29 29 28 27 28 29 27 26 28 25 22 23 23 22 22 22 22 22 22 22 22 22 22 22 21 21 21 21 20 20 19 19 19 18 18 18 18 18 17 17 17 16 16 15 15 15 16 16 16 16 16 16 17 17 17 17 17 17 17 16 16 16 16 16 16 16 17 17 17 16 16
31 32 31 26 23 24 23 22 23 22 22 26 29 29 28 28 29 29 27 28 30 27 25 27 25 23 23 22 21 22 22 23 24 23 22 22 22 22 22 21 21 21 20 19 19 19 19 19 18 18 18 18 18 17 17 17 16 16 15 15 15 16 16 16 16 16 17 17 17 17 17 17 17 17 16 16 16 16 16 16 17 17 17 17 16 16
29 30 31 28 24 23 23 22 22 22 23 27 30 29 28 27 28 29 26 26 29 27 24 26 26 24 23 22 21 22 24 25 27 26 23 22 22 22 22 21 21 20 18 18 18 18 18 18 18 18 18 18 17 17 17 17 16 16 15 15 15 16 16 15 16 16 17 17 17 17 17 17 17 17 16 16 16 16 16 17 17 17 17 17 17 17
30 29 29 27 23 23 23 22 22 23 25 28 29 28 27 26 28 27 23 24 28 26 23 26 27 24 23 22 21 23 25 27 28 26 23 22 22 22 21 21 21 19 18 18 18 18 18 18 17 17 18 18 17 17 17 17 16 16 15 15 16 16 16 16 16 17 18 18 17 17 17 17 17 16 16 16 16 16 16 17 17 17 17 17 17 17
28 27 26 25 23 23 23 22 22 24 27 28 29 28 27 26 27 25 23 26 28 25 23 26 27 24 22 22 23 24 25 25 25 24 22 22 22 21 21 21 20 18 18 18 18 18 18 18 18 17 17 17 17 17 17 17 16 16 16 15 15 16 16 16 17 17 18 18 17 17 17 17 17 17 16 17 17 17 17 17 17 17 17 17 17 17
25 25 24 23 23 23 23 23 22 24 27 28 28 27 27 26 25 25 25 25 26 25 24 24 24 23 22 22 23 24 23 23 22 22 21 22 22 21 20 19 18 18 18 18 18 18 18 18 18 17 17 17 17 17 17 17 16 16 16 15 16 17 17 17 17 18 18 18 17 17 17 17 17 17 17 17 17 17 17 17 17 17 17 17 17 17
26 25 23 23 23 23 23 22 22 24 26 26 27 28 28 27 27 27 27 25 24 25 25 24 23 23 22 22 23 23 23 22 22 22 21 21 21 20 18 18 18 18 18 18 18 18 18 18 17 17 17 17 16 16 17 17 16 16 15 15 16 17 17 17 18 18 18 17 17 17 17 17 17 17 16 17 17 17 17 17 17 17 17 17 17 17
27 25 24 24 25 23 23 23 24 25 26 25 26 28 29 27 26 27 28 27 25 25 24 24 24 23 22 23 23 22 22 22 21 21 21 21 20 19 18 18 18 18 18 18 17 18 18 18 17 17 17 17 16 16 16 16 16 15 15 16 17 17 17 18 18 18 17 17 17 17 17 17 17 17 17 16 17 17 17 17 17 17 17 17 17 17
26 26 26 26 26 25 25 25 26 26 25 24 24 26 26 25 24 24 26 28 27 25 24 25 25 23 22 23 22 22 22 21 21 21 21 20 20 18 18 18 18 18 18 18 18 18 18 18 17 17 17 16 16 16 16 17 16 15 16 17 17 16 17 18 18 18 17 17 17 17 17 17 17 17 17 17 17 17 17 17 17 17 17 17 17 17
25 25 26 27 26 25 25 25 25 25 25 24 23 23 24 24 23 23 25 27 27 25 23 24 24 23 22 22 23 22 21 20 20 20 20 19 19 18 18 18 18 18 18 18 18 18 18 18 17 17 16 16 16 16 16 17 17 17 17 17 17 17 18 18 18 18 17 17 17 17 17 17 17 17 17 17 17 17 17 17 17 17 17 17 17 17
25 25 26 27 26 25 26 26 25 25 25 25 24 24 24 24 23 23 24 26 25 24 23 23 23 22 21 22 23 22 20 20 20 20 19 19 19 18 18 18 18 18 18 18 18 18 17 17 17 16 16 16 16 16 16 16 17 17 17 17 17 18 18 18 18 18 17 17 17 17 17 17 17 17 17 17 16 17 16 17 17 17 17 17 17 17
26 26 27 27 26 26 26 25 25 25 24 24 24 25 25 24 23 23 23 23 23 22 22 22 21 21 21 22 22 21 20 19 20 20 19 19 19 18 18 18 18 18 18 18 18 18 17 17 17 16 16 16 16 16 16 17 17 17 17 17 17 18 18 18 18 18 17 17 17 17 17 17 17 17 17 17 16 17 17 17 17 17 17 17 17 17
26 27 26 26 26 26 26 25 25 26 26 26 25 25 24 23 24 23 22 22 22 22 21 21 21 21 21 21 20 21 20 19 19 19 19 19 19 18 18 18 18 18 18 18 18 18 18 17 17 16 16 16 16 16 17 17 17 17 17 18 18 18 18 18 18 18 17 17 17 17 17 17 17 17 17 17 17 17 17 17 17 17 17 17 17 17
26 27 25 25 26 27 27 27 26 27 28 28 27 26 24 22 23 24 23 23 23 22 21 21 20 20 20 19 19 21 21 20 19 19 19 19 19 18 18 18 18 18 18 18 18 18 17 17 17 16 16 16 16 16 17 17 17 17 17 18 18 18 18 18 18 18 17 17 17 17 17 17 17 17 17 17 17 17 17 17 17 17 17 17 18 18
28 27 26 27 28 27 28 27 26 27 28 27 26 25 23 22 24 25 24 23 23 22 21 21 21 21 20 19 19 20 20 20 19 19 19 19 18 18 18 18 18 18 18 18 17 17 17 17 17 17 17 17 17 17 17 18 18 18 18 18 18 18 18 18 18 17 17 17 17 17 17 17 17 17 17 17 17 17 17 17 17 17 18 18 18 18
Height
773 787 795 794 792 788 786 786 787 789 792 797 804 808 808 811 810 801 796 791 790 805 809 805 808 806 802 802 800 799 799 801 802 802 803 801 800 801 804 805 804 804 802 801 804 806 808 810 812 815 816 818 820 822 823 824 825 827 828 830 831 833 834 834 836 837 838 840 842 843 845 846 847 848 849 849 850 850 850 850 850 849 849 848 847 846
776 794 795 785 784 784 784 785 786 789 791 794 801 806 807 810 806 794 792 789 787 801 804 800 807 805 799 801 800 799 801 800 798 799 800 798 798 798 801 803 802 801 801 801 803 805 807 810 812 814 815 817 819 821 822 823 825 827 828 830 832 833 835 836 837 838 840 841 842 843 845 846 847 848 848 849 850 850 850 850 850 850 849 849 848 847
791 796 787 778 782 785 786 786 786 790 792 795 800 806 809 806 801 793 790 789 789 798 803 801 806 805 799 800 800 798 797 794 791 792 794 794 796 797 798 799 799 801 801 801 802 804 806 809 811 813 814 816 818 819 821 823 824 825 827 829 831 833 835 837 838 840 841 843 844 844 845 846 847 848 849 849 850 850 851 851 851 850 850 849 849 848
801 792 778 776 780 785 789 788 788 792 794 797 799 806 807 801 801 800 795 794 792 796 801 801 805 806 800 799 798 795 793 792 790 790 792 793 794 794 794 795 796 799 801 801 802 804 806 808 810 812 813 814 816 818 820 822 823 824 825 828 830 833 835 836 838 840 842 844 846 846 847 847 847 848 849 850 850 851 851 851 851 851 851 850 850 849
794 782 773 776 778 782 790 792 792 796 799 797 795 800 801 794 796 798 797 797 796 798 799 801 812 809 800 801 797 791 793 793 790 791 792 792 791 791 792 793 794 795 797 800 802 804 805 807 809 810 811 813 814 817 819 821 821 822 825 828 830 833 833 835 837 839 842 845 847 847 848 848 848 849 850 850 851 851 852 852 852 852 852 851 851 850
787 776 773 779 780 781 788 792 792 795 800 799 791 788 789 787 790 795 799 802 812 815 799 800 822 817 802 803 798 792 796 793 789 792 792 790 790 790 791 792 792 794 795 798 800 802 804 806 808 809 810 811 813 816 818 820 821 822 825 828 830 832 832 832 834 836 838 842 846 846 846 847 847 849 850 850 851 852 852 853 853 853 853 853 852 851
782 773 773 779 781 783 788 791 788 788 799 803 788 778 781 784 789 797 800 804 819 820 798 795 817 819 805 799 795 794 797 793 788 790 789 788 789 787 788 789 791 793 795 797 799 801 803 805 807 808 809 811 814 816 818 819 821 823 825 828 829 830 830 831 832 833 834 838 843 845 845 846 847 848 849 850 851 852 853 853 854 854 854 853 853 852
777 775 777 779 782 786 789 790 785 783 796 799 781 774 780 783 787 794 797 801 807 807 802 799 807 818 810 796 795 796 796 795 790 787 785 785 785 784 785 787 788 791 793 796 799 800 802 803 804 806 808 811 814 816 818 819 822 824 826 828 828 828 829 831 833 834 835 838 841 844 845 847 847 847 849 850 852 853 853 854 854 854 854 854 854 853
774 776 777 777 783 789 787 785 779 779 790 786 773 774 778 779 784 787 793 801 801 804 815 810 805 821 816 795 798 801 798 799 791 782 779 778 780 780 781 784 786 788 790 793 796 798 800 802 803 805 808 812 814 815 817 819 823 825 827 829 829 829 830 832 834 835 837 839 841 843 845 847 848 848 849 851 852 853 854 854 855 855 855 855 855 854
772 771 769 772 781 784 778 775 773 776 782 774 769 775 777 781 785 788 796 801 803 812 817 809 805 820 817 794 796 806 802 796 785 774 770 770 774 776 778 783 785 787 790 791 794 796 799 801 802 806 809 812 813 814 816 819 822 825 827 829 830 831 832 833 835 836 838 840 841 843 844 846 848 849 850 851 852 854 854 855 855 855 856 856 855 855
768 764 764 768 772 771 767 768 769 771 771 768 772 777 780 787 788 792 799 798 813 824 809 801 801 810 815 797 790 795 783 773 773 769 766 766 771 774 777 781 784 787 789 790 793 795 798 801 803 807 810 811 812 813 816 818 820 822 825 828 830 832 833 834 835 837 838 840 842 843 844 845 847 849 850 851 852 854 855 855 855 856 856 856 856 855
770 769 769 763 758 761 764 768 770 769 768 772 779 782 787 795 794 800 805 804 825 829 804 799 802 809 820 799 779 778 765 760 766 763 762 765 769 772 775 779 782 785 787 789 792 794 797 801 804 807 809 809 811 814 817 817 818 821 824 828 830 832 833 834 836 838 839 840 842 843 845 846 847 849 850 851 853 854 855 855 856 856 857 857 857 857
775 771 768 762 755 757 766 775 776 773 773 778 783 789 800 810 812 816 818 819 828 818 802 804 803 809 816 789 767 769 764 761 762 757 758 763 768 772 775 779 782 784 785 787 789 792 796 799 803 806 807 809 812 816 819 819 821 824 827 830 830 830 832 833 835 838 839 840 841 843 845 846 848 850 851 852 853 854 855 855 856 857 857 858 858 858
783 773 766 766 761 754 761 775 782 780 780 782 783 790 803 817 828 831 829 830 825 809 803 805 803 808 806 779 761 762 759 758 756 755 757 758 764 770 774 779 782 784 785 786 788 791 794 798 802 805 807 811 817 821 822 823 825 827 828 829 829 830 832 833 835 837 839 840 842 844 846 847 849 850 851 853 853 855 856 856 857 857 858 858 858 859
796 788 769 766 763 754 756 763 768 772 776 778 775 780 793 803 815 822 820 819 815 809 810 808 804 805 795 774 762 760 759 757 754 754 756 756 761 768 772 778 781 783 785 786 788 791 793 797 800 804 809 815 819 820 821 824 825 825 825 826 829 831 832 833 835 836 838 841 843 845 846 848 850 851 852 853 854 855 856 857 857 858 858 859 859 860
799 791 763 755 756 752 754 752 752 763 775 778 773 779 788 784 787 803 809 806 806 810 815 812 801 792 779 766 762 763 761 759 758 756 758 761 765 768 774 778 780 782 784 785 788 790 792 795 799 804 809 813 815 816 819 821 822 823 825 828 830 831 833 834 835 836 838 841 844 845 847 848 850 852 852 854 855 856 857 858 858 859 859 859 860 860
795 785 758 753 755 749 750 749 747 758 771 779 779 779 778 770 771 793 809 809 810 812 814 811 798 783 776 767 763 766 764 763 766 763 763 766 768 772 776 778 780 781 783 785 787 789 791 795 800 803 806 811 814 816 818 819 822 824 826 828 830 831 834 835 835 836 839 842 844 846 847 849 851 852 853 854 856 857 858 858 859 859 860 860 861 861
784 781 760 754 756 748 745 747 747 748 756 771 779 771 768 772 773 785 803 812 819 821 813 809 803 793 790 779 766 767 770 770 773 771 770 772 772 776 778 778 780 780 782 785 786 789 792 795 799 802 807 811 812 813 816 819 822 825 827 828 829 831 833 834 835 837 840 842 844 846 848 850 852 853 854 855 856 857 858 859 859 860 860 861 861 861
775 782 767 754 757 752 745 751 758 754 749 757 764 758 765 782 785 788 802 809 819 827 816 810 812 804 793 780 766 766 770 772 777 777 776 776 776 778 779 778 780 780 782 785 786 789 791 794 798 801 805 807 809 812 816 819 822 825 827 828 829 831 833 834 835 837 841 843 844 847 849 851 853 854 855 856 857 858 859 859 859 860 861 861 862 862
769 782 777 758 753 753 749 756 766 766 758 754 756 759 766 776 780 786 795 796 804 822 821 814 811 796 781 776 771 767 768 774 780 780 778 777 776 777 776 777 779 780 783 785 786 789 791 794 798 800 803 806 810 816 817 819 823 825 828 829 830 833 835 836 837 837 841 844 845 848 850 852 853 854 856 857 858 859 859 860 860 860 861 862 862 863
765 779 781 764 754 757 759 759 760 763 764 762 765 771 771 772 775 780 789 792 793 807 818 819 810 786 771 775 774 768 768 773 778 777 777 777 776 775 775 775 778 780 783 785 787 790 792 796 799 801 805 808 812 816 818 820 824 825 828 830 832 835 836 838 839 840 842 844 846 849 850 852 854 855 857 858 859 860 859 860 861 861 862 862 863 863
764 775 779 772 766 765 760 753 751 752 755 758 762 767 768 770 777 785 797 799 792 796 806 813 807 781 768 774 772 767 768 770 773 773 774 777 776 776 777 776 778 780 783 785 787 790 794 797 801 804 807 810 813 816 818 821 823 825 828 831 833 835 836 838 840 841 843 845 847 850 851 853 855 856 857 858 859 860 860 860 861 861 863 863 863 864
756 767 776 776 769 762 753 749 752 753 751 752 755 758 761 765 770 782 796 794 792 802 804 807 804 780 769 774 770 766 767 767 770 771 772 776 775 776 777 776 778 780 782 786 787 791 795 798 803 806 807 811 813 814 817 819 823 827 830 832 833 835 837 839 841 842 844 846 848 850 852 853 855 856 858 859 859 860 860 860 861 862 863 864 864 865
753 766 776 776 767 757 749 746 749 750 750 753 756 757 760 763 762 768 778 778 787 800 799 805 807 780 767 773 769 767 768 767 771 772 771 775 774 774 777 776 778 780 782 786 788 791 796 799 803 806 808 812 814 815 817 820 824 828 831 833 834 836 838 839 841 843 845 847 849 851 853 854 856 857 858 859 860 860 860 861 861 862 863 864 864 865
756 769 776 781 782 775 768 763 758 752 751 756 760 760 760 762 762 766 773 775 784 794 792 799 800 778 769 775 772 771 773 770 774 774 772 774 774 774 777 777 779 782 783 787 789 791 796 799 803 806 809 812 815 817 819 821 825 829 831 833 834 836 838 839 841 843 845 848 850 852 854 855 856 857 858 859 860 860 861 861 861 862 863 864 865 865
754 767 770 778 792 795 791 786 774 763 760 760 762 762 761 762 763 766 774 778 784 795 795 790 785 773 773 779 775 775 777 775 775 775 774 775 775 775 778 779 781 783 785 787 789 792 795 798 802 805 809 812 814 818 820 823 827 829 831 833 834 835 837 839 842 844 846 849 850 852 854 855 856 858 859 860 860 860 861 861 862 862 863 864 864 865
753 762 761 765 773 777 776 771 764 762 763 763 762 762 764 765 762 762 773 776 780 794 795 782 776 772 772 779 780 778 779 778 777 777 777 777 777 777 779 781 782 784 786 788 790 792 795 798 801 805 808 812 814 817 820 823 826 828 830 832 834 836 838 840 843 845 847 850 851 853 854 855 857 858 859 860 860 860 861 861 862 862 863 863 864 864
750 759 763 762 760 762 763 762 761 761 762 764 765 765 764 765 761 761 770 774 776 787 787 777 777 776 772 778 781 777 777 778 777 777 777 778 778 779 780 781 783 785 787 789 791 794 796 798 801 804 807 811 814 816 819 822 825 827 829 832 834 837 838 841 843 846 848 850 852 853 854 855 857 858 859 859 860 860 860 861 862 862 862 863 863 864
746 758 765 764 762 764 765 765 765 763 764 767 768 767 764 763 760 759 768 773 773 776 776 773 778 775 771 776 777 772 774 774 774 775 776 777 778 779 780 782 784 786 787 790 792 794 796 799 801 804 807 810 813 815 818 821 824 827 829 832 834 837 839 841 844 846 849 851 852 853 854 856 857 857 858 859 859 860 860 861 861 862 862 862 863 863
745 758 763 762 764 767 767 765 765 765 767 769 770 770 766 764 764 764 770 775 774 774 776 778 780 774 769 772 770 767 770 771 772 774 775 777 779 779 781 783 784 786 787 789 791 792 795 797 800 803 807 809 812 815 818 821 824 826 829 831 834 837 839 842 844 846 849 851 852 853 854 856 856 857 858 858 859 860 860 861 861 861 862 862 862 863
744 760 764 759 765 774 769 765 768 768 768 769 771 772 768 765 767 768 772 776 775 776 779 782 780 773 767 768 767 766 768 770 773 776 776 778 779 779 782 783 784 786 786 788 790 791 794 796 800 803 805 808 811 814 817 820 822 825 828 831 834 836 839 842 844 846 848 849 851 852 854 855 856 857 858 858 859 859 860 860 860 861 861 862 862 863
743 760 764 758 770 780 772 770 773 768 768 772 772 772 770 768 769 769 771 774 772 773 778 780 776 769 767 768 768 768 769 771 774 775 776 778 778 779 781 782 783 784 785 787 788 791 793 795 798 801 803 806 809 812 816 818 821 825 827 830 833 835 838 841 843 845 847 848 850 851 852 854 855 856 857 857 858 858 859 860 860 860 861 861 862 863
746 754 761 764 775 781 777 776 773 770 779 785 776 770 771 769 769 770 769 770 771 769 773 775 770 766 767 769 771 771 771 772 772 772 773 775 776 778 779 779 781 782 783 785 787 789 791 792 795 798 801 804 806 809 812 815 818 822 825 829 832 834 837 839 841 844 846 848 849 850 851 853 854 855 856 856 857 858 858 859 859 860 861 861 862 863
749 749 760 768 773 781 783 777 776 787 798 790 770 765 768 766 766 769 767 767 769 768 768 769 768 768 770 770 770 770 768 767 768 767 768 770 773 775 776 777 779 780 781 783 785 786 789 791 794 796 798 801 803 807 811 814 817 821 824 828 831 833 836 838 840 843 845 847 849 849 850 851 852 854 855 855 857 857 858 859 859 860 861 861 862 863
750 752 763 770 773 782 784 781 793 807 796 773 762 763 765 764 764 766 766 765 766 766 766 766 767 769 771 769 768 767 766 765 765 766 766 767 768 770 773 775 776 778 780 782 783 785 787 789 792 795 797 800 803 806 810 814 817 821 824 827 829 831 834 837 839 842 844 846 848 849 850 850 851 853 854 855 856 856 857 858 859 859 860 861 862 863
746 753 762 772 780 785 786 791 802 801 779 764 764 764 762 764 765 766 768 764 760 763 764 763 766 769 770 769 767 766 766 765 765 766 766 766 766 767 769 771 772 775 777 778 780 782 784 787 789 792 795 799 803 805 809 812 816 819 822 826 828 831 833 836 839 841 843 844 846 847 849 850 851 852 853 854 855 856 857 857 858 859 860 860 861 862
741 749 757 771 783 786 790 795 793 788 781 773 767 762 760 762 762 765 771 765 756 758 761 760 766 769 767 768 768 766 766 768 771 770 766 764 765 765 765 766 768 769 771 774 776 778 781 784 787 790 794 797 801 804 807 810 814 817 822 826 829 831 834 836 838 840 841 843 845 846 848 849 850 851 852 853 854 855 856 857 858 858 859 860 861 861
740 746 750 765 782 785 788 796 798 799 794 776 763 758 755 755 755 759 769 767 754 754 758 757 763 767 766 768 769 766 767 772 775 770 764 762 762 762 764 766 766 769 774 778 781 782 783 785 787 791 794 796 800 804 806 809 813 817 822 826 829 831 833 835 837 838 840 842 844 846 847 848 850 851 852 853 853 854 856 856 857 858 858 859 860 860
746 750 750 761 779 783 782 790 800 799 785 767 759 756 753 755 754 757 773 774 756 751 757 756 759 765 764 766 767 766 770 775 772 763 758 758 759 759 763 765 768 774 780 783 784 786 788 789 790 793 796 797 800 804 806 809 813 816 820 824 827 829 831 833 835 837 839 841 843 845 847 848 849 850 851 852 853 854 855 856 856 857 858 858 859 859
752 755 757 763 775 780 780 785 791 785 772 763 758 755 754 754 752 767 790 781 755 751 757 753 754 761 762 765 768 767 768 770 765 757 753 753 755 757 760 764 769 774 777 780 782 786 791 793 793 795 797 798 800 803 806 808 812 815 818 822 824 826 828 831 834 836 838 840 842 845 846 848 849 850 851 852 853 853 854 855 856 856 857 857 858 858
762 764 769 771 774 777 779 783 786 778 765 759 756 753 753 755 763 781 789 769 750 753 756 750 752 758 760 763 765 764 763 762 759 755 752 752 756 759 762 768 774 778 781 785 788 789 792 795 796 797 799 800 801 803 805 808 810 814 817 820 822 824 826 829 833 835 837 840 842 844 846 847 849 850 850 851 852 853 854 854 855 855 856 856 857 857
767 771 776 777 779 782 780 780 785 779 762 754 754 752 752 763 775 777 766 754 751 754 753 751 754 756 758 760 761 760 760 759 757 756 754 755 758 762 769 776 781 784 787 790 792 792 793 796 799 800 801 802 803 804 805 807 810 812 816 818 820 823 826 829 832 834 837 839 842 844 845 847 848 849 850 851 851 852 853 853 854 854 855 855 855 855
761 767 776 777 779 783 783 783 787 781 763 754 756 756 755 763 767 759 751 753 753 751 751 754 754 754 757 759 759 760 760 759 758 758 757 758 762 767 773 776 778 780 782 785 789 791 792 797 801 803 802 803 804 805 806 807 809 812 815 818 820 823 827 829 831 834 837 839 841 843 844 846 847 848 849 850 851 851 852 852 853 853 854 854 854 854
758 762 770 772 772 776 780 780 778 770 760 755 757 758 756 754 752 749 749 752 751 750 752 753 752 754 755 756 759 761 761 760 760 759 759 761 764 769 772 772 774 777 780 783 787 789 792 796 802 804 803 803 804 806 807 808 810 813 815 818 821 824 827 829 832 834 837 839 841 842 844 845 846 847 848 849 849 850 851 851 852 852 852 853 853 853
756 755 756 760 763 767 769 768 764 759 757 756 755 755 752 749 748 749 749 749 749 750 751 751 752 753 753 755 759 761 761 762 762 760 761 763 765 768 771 773 777 779 781 784 787 789 791 794 799 802 803 804 805 807 807 808 810 812 816 819 822 824 827 829 832 834 836 838 840 841 842 844 845 846 847 848 848 849 849 850 851 851 851 852 852 852
753 751 750 754 760 763 762 760 758 757 757 755 753 752 751 749 749 749 748 748 748 748 749 750 751 752 753 756 758 760 762 763 762 762 763 764 767 769 771 775 778 779 781 783 786 788 791 794 797 800 802 803 805 807 808 809 811 813 816 819 821 824 826 829 831 834 836 837 839 840 841 842 844 844 845 846 847 847 848 849 849 849 850 850 850 850
751 749 751 756 760 763 763 761 758 757 757 755 753 752 750 750 750 749 748 748 747 747 749 749 749 752 754 755 756 760 762 762 762 764 765 765 768 770 772 775 778 779 781 783 785 788 792 794 797 799 800 802 805 806 809 811 812 814 816 819 821 824 826 829 831 833 835 836 837 839 840 841 842 843 844 845 845 846 847 847 848 848 848 848 848 848
750 748 753 759 760 761 762 760 757 755 754 753 752 752 750 750 750 748 747 747 747 748 749 749 750 752 754 755 757 760 761 762 763 764 765 767 769 770 772 775 777 779 782 784 786 789 791 794 796 798 800 802 804 807 809 811 813 815 817 819 821 824 826 828 830 832 834 835 836 838 839 840 841 842 842 843 844 844 845 845 846 846 846 846 847 847
747 749 755 760 761 762 761 758 756 756 755 752 751 751 750 749 749 748 748 749 749 749 750 751 752 752 754 756 758 758 761 764 763 763 766 768 769 771 773 775 777 779 782 784 786 788 790 793 795 797 800 803 805 807 809 810 812 815 817 819 821 823 825 828 829 831 833 834 835 836 837 838 839 840 841 841 842 843 843 844 844 844 844 844 845 845
748 754 759 761 764 765 760 755 754 757 758 753 749 748 749 748 748 749 749 750 750 751 751 752 753 754 755 756 757 758 761 763 763 764 766 768 769 772 773 775 778 780 782 784 787 789 791 794 796 798 801 803 805 807 809 810 812 815 817 819 821 823 825 827 828 830 831 832 834 835 836 837 838 838 839 840 840 841 841 842 842 842 842 842 842 842
746 750 754 756 760 759 752 748 749 753 753 751 748 748 748 748 748 749 750 751 751 751 751 753 754 756 757 758 757 758 760 762 764 765 767 769 771 772 773 775 777 780 782 785 787 789 792 795 797 799 800 802 804 806 808 810 812 814 816 818 820 822 824 826 827 829 830 831 832 833 834 835 836 837 838 838 839 839 840 840 840 840 840 840 840 840
Wind_Speed
3 2 1 4 6 7 7 7 6 5 5 6 6 4 5 5 5 6 5 6 10 7 8 12 9 7 8 9 9 9 9 9 9 9 8 8 9 8 7 7 8 8 7 10 15 18 18 19 20 19 19 18 17 16 17 17 16 15 15 15 15 15 15 17 19 21 23 24 23 22 20 18 17 15 14 13 12 11 11 12 12 14 14 14 14 12
3 1 5 8 7 5 5 6 4 3 1 2 4 3 4 4 6 7 6 6 10 7 8 8 7 7 8 8 7 7 10 12 13 12 11 12 11 8 8 9 9 6 5 8 12 15 17 19 20 20 20 20 19 19 19 18 17 16 16 17 16 15 15 17 20 23 24 24 22 21 20 19 18 15 14 13 12 11 11 11 12 13 13 13 13 12
3 4 10 10 4 4 3 4 4 3 2 2 2 1 2 3 5 6 3 5 9 7 5 5 8 7 7 7 7 9 12 12 13 13 11 11 11 9 9 10 8 6 6 8 9 13 18 20 21 21 21 21 21 20 20 19 18 17 18 18 17 15 16 18 20 21 22 21 19 19 20 20 18 16 14 13 12 11 11 11 12 13 12 12 13 12
3 6 9 6 3 4 1 3 5 2 1 2 3 2 3 3 2 4 4 3 7 3 2 5 5 4 5 5 7 10 10 7 8 9 7 7 9 9 9 8 9 9 9 9 8 10 16 20 21 21 22 22 22 21 20 20 19 19 20 19 18 17 18 20 21 20 20 19 18 19 20 19 18 17 15 14 13 11 11 12 12 12 12 12 12 12
7 8 4 3 2 4 3 3 6 3 2 3 5 5 4 5 4 4 2 2 3 1 1 5 2 5 4 5 8 8 6 7 8 7 6 7 8 7 6 7 9 10 10 10 9 9 13 17 20 21 23 23 23 23 22 22 21 21 21 19 19 19 20 22 22 21 20 19 19 21 20 18 18 18 15 15 14 11 11 12 12 12 12 12 12 12
8 8 2 4 5 1 2 4 5 6 3 4 5 8 8 7 5 3 4 5 3 3 3 5 2 5 4 5 10 5 4 10 9 7 9 8 7 7 7 8 9 9 9 10 11 11 13 17 19 20 22 23 23 23 23 23 22 21 21 20 20 20 22 24 23 23 22 19 21 23 22 21 20 18 15 14 14 12 11 12 12 12 11 12 13 13
5 4 2 5 8 4 4 6 4 7 3 3 5 7 8 6 3 7 8 5 3 4 5 4 4 5 5 5 10 5 5 11 10 9 11 8 8 10 9 8 9 9 8 9 10 12 14 17 18 19 22 23 23 23 24 23 22 21 21 21 21 21 24 25 25 25 21 19 23 24 22 21 21 19 16 15 13 12 12 12 12 11 11 13 14 14
4 3 3 6 6 5 5 5 4 7 6 4 5 6 6 6 5 8 9 5 4 2 2 1 4 1 4 6 6 3 6 10 11 13 12 9 11 11 10 9 10 11 10 10 10 11 13 17 19 20 22 22 22 23 24 23 21 21 21 21 22 22 24 24 24 22 17 20 26 24 21 20 18 18 18 16 14 13 12 12 11 11 12 13 13 13
4 5 7 8 5 5 5 5 6 7 4 7 6 4 3 4 4 7 8 4 2 2 2 4 3 1 5 6 4 1 5 9 12 17 15 12 13 12 11 10 10 10 10 11 11 12 14 17 21 22 22 21 22 24 24 23 21 21 21 21 22 22 22 21 20 17 16 23 26 23 21 20 17 18 19 17 14 13 12 11 11 11 12 13 13 13
3 6 8 6 5 6 6 6 8 9 6 6 3 2 3 3 2 3 6 3 3 2 5 7 6 4 5 6 3 3 3 10 13 16 15 12 12 12 10 9 10 9 9 10 11 12 15 18 21 22 21 21 22 24 23 22 22 22 21 21 20 19 19 17 15 15 19 25 25 23 21 20 19 21 20 17 15 13 12 12 12 11 12 12 12 12
4 3 3 4 5 6 6 5 7 10 8 2 2 2 4 5 4 4 3 4 4 2 6 7 9 6 3 5 4 4 7 11 11 12 12 9 10 10 9 9 10 9 9 9 10 12 16 19 20 20 21 21 22 23 23 23 24 24 23 22 20 17 15 15 14 17 23 26 24 22 20 19 21 22 20 18 16 14 13 13 13 12 12 11 11 12
6 3 1 3 5 5 3 2 1 3 3 2 2 1 3 5 4 4 4 4 2 5 7 3 6 4 3 5 5 8 10 8 8 11 10 8 9 10 9 9 10 10 10 11 10 12 14 15 18 20 21 22 23 22 22 24 25 24 23 22 20 17 16 16 17 21 24 25 23 21 20 19 21 21 19 17 16 15 14 14 13 12 11 10 10 12
5 5 4 4 3 5 5 2 3 3 3 5 4 5 3 3 2 2 2 0 3 6 5 2 5 3 5 8 9 10 12 9 9 10 5 7 8 8 9 9 9 9 10 11 11 11 11 13 16 19 22 22 21 20 21 22 21 21 20 19 20 19 18 19 21 24 25 23 22 21 20 20 20 19 17 15 15 15 14 14 13 12 11 10 11 13
4 6 4 1 3 4 8 4 2 0 2 5 5 4 4 2 1 2 4 2 3 4 4 3 5 2 4 7 9 10 10 9 12 9 4 8 10 10 9 9 9 9 10 10 11 11 11 12 15 19 22 20 16 17 18 17 18 20 20 20 21 21 20 22 24 25 24 22 22 21 20 20 19 17 14 13 15 16 14 13 13 12 10 10 11 12
1 5 3 5 2 3 8 8 7 6 3 4 5 6 4 4 4 4 4 3 4 3 2 2 3 3 3 4 6 6 6 6 6 4 5 7 10 11 10 11 10 10 10 9 10 11 11 15 18 19 20 17 15 18 19 18 19 21 23 24 24 24 23 24 25 24 23 23 22 21 20 20 17 14 13 14 15 15 13 12 12 11 9 9 11 11
2 5 8 5 1 5 7 6 7 7 2 3 3 5 2 4 5 2 3 5 3 1 0 2 3 4 5 5 5 3 5 6 3 4 8 8 9 11 10 10 11 10 10 10 11 11 12 18 20 20 23 21 20 22 21 23 24 23 23 24 25 24 23 23 24 24 23 23 23 21 20 18 15 14 14 16 15 13 12 12 11 10 9 9 10 9
2 5 8 3 2 5 7 5 6 5 3 1 2 4 4 4 7 3 1 0 2 1 2 1 3 5 4 4 5 5 6 7 6 5 7 8 10 10 9 9 10 11 11 10 10 10 12 17 19 23 27 25 21 20 21 24 26 24 24 26 25 24 23 23 23 23 23 24 23 21 19 16 14 14 16 17 14 13 14 13 11 9 9 9 9 8
3 4 7 2 5 6 2 5 2 2 5 5 3 5 3 2 4 3 1 3 3 1 4 1 3 5 3 3 5 5 5 5 6 4 6 7 8 9 8 8 10 11 11 11 11 11 13 16 19 24 27 25 22 22 23 25 25 24 25 26 24 23 24 24 24 24 24 23 22 19 17 15 14 16 17 16 14 16 17 14 11 10 9 9 8 7
3 2 7 4 5 5 3 5 2 4 1 4 5 3 3 2 0 1 2 1 0 1 4 4 3 3 3 4 4 3 1 0 3 3 5 7 8 8 8 10 12 12 11 10 11 10 11 16 20 24 27 27 25 23 24 26 25 25 25 24 23 24 25 26 25 25 24 22 20 18 16 15 16 18 18 16 17 19 17 14 12 11 9 8 7 6
2 1 5 5 3 3 3 3 1 3 2 2 3 2 2 3 4 2 2 3 2 2 2 4 4 3 6 5 3 4 5 5 4 3 5 6 8 8 10 12 12 11 10 9 10 9 10 15 21 27 31 28 24 22 25 26 25 24 24 23 24 24 25 25 25 25 23 20 18 17 16 16 17 19 18 18 19 19 16 14 14 13 11 9 7 5
2 2 3 6 5 3 1 1 3 5 3 2 3 1 1 1 2 2 1 2 3 3 2 2 3 5 6 4 4 5 5 7 8 7 6 6 7 8 10 12 11 10 9 9 10 9 10 15 21 27 30 27 25 24 24 24 25 25 25 25 25 25 25 25 24 24 21 19 17 17 17 17 18 19 18 18 18 17 16 14 13 12 12 10 8 7
3 3 2 3 5 3 5 6 4 7 6 5 5 4 4 3 3 2 2 3 1 3 4 3 3 7 5 3 5 6 4 7 8 9 8 7 8 9 9 10 10 9 9 10 11 9 10 15 20 23 24 24 25 25 24 25 25 25 26 26 26 26 26 25 24 23 20 18 18 16 16 17 19 18 17 17 17 16 15 13 11 10 11 12 11 12
3 4 2 3 4 5 9 7 4 7 6 5 4 3 4 4 5 5 4 4 1 2 1 3 1 6 5 3 5 5 4 6 6 7 9 8 9 10 10 10 9 10 10 10 10 9 12 17 20 21 22 22 23 23 24 25 25 26 26 27 27 27 27 25 24 22 19 19 18 16 16 18 19 18 17 17 17 16 14 13 10 8 9 10 11 13
2 3 2 3 5 5 8 6 1 4 4 4 1 1 3 3 3 5 5 3 4 3 2 2 2 6 5 4 3 0 4 6 5 6 9 10 8 10 11 10 9 10 10 11 10 10 14 17 19 20 21 21 21 22 23 23 25 26 26 26 27 28 26 25 23 21 20 20 18 17 18 19 19 18 17 17 16 14 12 10 8 7 8 8 8 9
3 2 3 1 4 5 6 7 5 3 3 2 1 3 0 4 5 4 2 3 2 4 5 4 3 6 4 3 4 4 6 7 7 6 7 9 9 10 10 9 8 9 10 11 11 11 13 15 16 18 19 20 21 22 23 24 25 26 25 25 27 27 25 24 23 22 21 20 19 19 19 19 19 19 18 16 15 12 10 8 7 6 6 5 5 5
3 3 4 4 3 1 1 2 2 2 2 1 1 3 3 3 7 5 3 4 1 3 4 4 5 6 4 3 5 4 5 7 8 7 6 6 8 9 9 9 8 8 10 12 11 12 12 13 15 18 19 20 22 22 23 24 25 25 24 24 26 26 26 25 24 23 22 20 20 20 19 19 19 18 17 15 13 11 9 8 7 6 5 4 3 3
3 2 4 6 7 6 6 7 5 3 1 2 3 4 3 2 6 5 4 2 4 4 1 5 6 4 5 2 4 3 5 6 6 8 7 6 8 8 9 9 8 8 9 10 10 11 11 11 14 18 20 21 22 24 25 25 24 24 24 23 24 25 26 25 25 24 23 21 20 19 18 18 17 17 16 14 13 11 10 9 8 6 5 5 4 3
5 2 4 5 5 6 4 4 3 2 3 1 1 3 2 2 5 5 3 3 5 5 2 6 5 3 5 3 6 5 6 7 7 8 7 7 8 9 9 10 10 10 9 9 9 10 11 11 12 16 19 21 22 24 25 24 24 25 25 24 24 25 25 26 26 25 24 22 20 19 18 17 17 16 16 14 13 11 10 9 8 7 6 5 4 3
6 3 3 3 1 3 3 4 2 3 2 1 2 2 3 3 4 5 3 3 5 5 4 5 5 5 6 4 7 8 7 7 7 7 7 7 8 9 10 11 11 11 10 10 10 11 11 10 11 15 19 20 22 23 23 23 23 24 24 25 25 25 25 26 27 26 25 23 21 20 18 17 17 15 14 13 12 11 9 8 8 7 6 5 3 2
5 1 2 3 3 7 7 5 4 3 2 3 5 4 2 4 5 5 3 2 3 2 3 2 4 6 6 5 7 7 6 5 5 7 8 9 9 10 10 10 10 11 11 11 11 11 11 11 12 16 19 20 21 23 23 24 25 25 25 26 27 27 26 27 27 26 26 25 22 21 19 18 16 15 13 12 11 11 10 8 7 5 5 5 3 2
4 1 1 3 5 6 7 6 7 4 2 4 5 5 5 6 5 4 3 2 1 2 2 2 2 5 5 3 4 6 7 6 7 9 9 9 9 10 10 10 10 11 11 11 11 11 11 12 14 17 20 21 23 23 24 26 27 27 27 27 28 29 29 28 27 27 27 27 25 23 20 18 17 15 14 12 12 11 10 7 5 4 4 4 3 2
4 3 1 4 6 2 4 5 5 5 6 6 5 6 5 4 2 1 1 2 3 2 1 3 1 5 4 3 5 7 8 9 9 10 9 9 10 11 11 11 10 11 12 11 11 11 12 12 14 18 20 22 24 25 26 28 28 28 28 29 30 31 30 29 27 27 28 28 27 25 22 19 18 17 16 14 12 11 9 7 5 5 5 4 3 1
3 4 2 4 4 2 4 3 3 6 7 4 4 3 3 3 2 2 2 1 3 4 4 2 4 4 3 6 8 8 9 10 10 10 9 10 12 12 11 11 11 11 12 11 11 12 13 14 17 21 23 25 27 28 30 32 31 30 32 32 31 32 32 30 28 28 29 29 29 26 23 21 20 19 18 14 11 10 9 8 5 5 4 3 1 1
3 6 3 3 4 2 3 4 5 5 3 4 6 5 5 4 2 2 3 3 3 2 3 3 4 3 6 9 9 9 10 9 8 9 8 9 10 11 11 11 10 11 10 11 12 12 13 16 20 24 26 28 29 30 31 32 32 33 34 32 32 32 32 30 28 28 28 29 28 26 23 22 21 20 18 15 12 11 10 8 6 4 2 1 1 3
4 5 3 2 4 3 1 6 5 1 5 7 6 3 5 6 5 5 4 5 5 4 2 2 3 3 7 7 5 5 5 4 5 6 8 8 9 10 11 11 11 11 11 11 11 12 14 18 21 22 24 26 28 29 29 29 30 33 34 32 32 33 32 30 28 28 28 29 28 25 23 21 20 20 18 15 13 11 10 8 6 4 2 1 2 5
5 5 3 2 3 3 2 4 2 5 7 6 6 4 2 3 3 3 2 6 6 6 5 4 3 4 5 3 2 4 3 4 3 3 5 7 8 9 10 12 12 12 11 12 14 15 19 22 24 25 25 25 27 29 30 31 33 34 33 31 31 32 31 30 29 28 28 29 27 25 23 21 19 19 18 16 14 12 10 8 6 4 4 3 5 6
6 5 3 2 2 3 3 2 2 3 3 3 4 3 2 2 3 4 1 6 6 5 5 5 4 4 4 3 4 5 5 4 2 2 4 7 8 9 10 10 13 14 15 17 20 22 25 26 26 27 28 27 28 29 31 33 34 32 30 28 28 28 28 27 27 28 28 28 27 25 23 21 19 18 18 17 15 13 10 8 6 5 5 5 7 8
5 3 4 4 2 2 5 2 2 2 2 6 6 4 2 3 5 7 3 4 6 5 6 7 7 6 5 5 5 6 5 3 1 4 6 7 8 9 8 9 12 13 11 10 13 16 20 23 24 25 27 28 27 28 31 33 33 30 28 26 27 27 28 28 28 28 28 27 26 24 23 21 19 18 17 16 15 14 11 8 8 7 6 7 8 9
7 3 4 5 2 2 5 3 2 3 4 6 7 6 3 3 6 6 5 4 6 5 6 7 7 7 6 6 7 6 5 2 4 5 6 9 10 10 9 8 8 9 10 8 11 13 15 19 22 23 25 27 27 28 30 32 32 31 29 28 29 30 30 29 28 28 27 26 26 24 23 21 18 17 16 14 14 13 11 9 8 7 6 7 8 9
6 5 4 4 3 2 4 3 2 4 3 3 5 6 3 4 7 7 3 5 6 4 6 7 8 8 6 6 6 5 4 4 5 5 5 10 11 9 10 9 9 14 16 15 17 17 16 18 21 23 24 26 28 29 31 33 32 31 29 30 31 31 30 30 29 28 27 26 26 24 22 20 18 16 14 12 11 10 9 8 7 6 6 7 8 9
3 3 2 4 3 3 4 3 2 3 4 4 5 5 2 4 5 4 3 6 4 4 5 6 7 7 7 8 6 4 3 3 3 4 4 8 8 7 7 9 11 13 13 11 12 14 15 17 20 22 23 25 27 29 32 34 32 30 29 30 31 31 31 29 28 27 26 26 25 25 22 20 18 16 12 9 8 8 7 7 6 5 6 7 8 8
2 1 2 2 3 2 3 3 1 3 4 3 2 2 2 4 2 4 6 4 3 4 4 3 5 6 7 8 7 3 1 1 2 0 4 7 7 6 10 17 18 15 12 11 11 14 15 14 15 18 20 23 26 30 33 33 30 28 28 29 30 30 29 28 27 26 24 24 25 24 22 20 19 16 13 10 9 8 7 7 6 5 6 6 7 8
4 3 1 1 3 2 2 3 1 3 4 1 2 1 1 2 4 5 3 1 1 4 4 3 4 5 6 7 5 3 3 2 3 3 4 5 6 10 16 18 16 14 15 16 15 16 17 14 12 15 19 22 26 29 31 31 28 26 27 28 29 28 27 27 26 24 23 23 23 22 21 19 17 15 14 12 11 9 8 7 6 6 6 7 9 10
2 3 2 3 3 3 3 1 3 4 5 2 1 2 3 2 3 4 3 1 1 2 4 3 4 5 6 6 4 4 3 3 3 4 4 6 8 12 15 16 17 16 16 18 18 18 18 17 15 16 19 23 26 27 29 29 26 25 26 27 26 26 26 26 25 23 23 22 22 21 18 15 14 14 14 13 12 10 9 8 7 7 8 9 11 13
2 3 4 3 3 3 4 5 5 4 4 3 2 4 5 3 1 4 4 1 2 3 3 3 4 5 5 5 5 4 3 2 3 3 4 6 8 10 13 15 16 16 16 17 19 18 18 20 20 19 20 22 24 26 27 28 27 26 26 26 25 25 26 26 25 24 23 21 21 20 17 14 13 13 13 14 13 12 11 9 9 9 10 11 12 14
2 2 3 2 1 2 2 2 2 2 3 3 2 3 3 3 1 2 3 1 2 3 3 3 4 4 5 6 5 4 3 3 4 4 4 6 7 9 12 15 16 17 17 16 17 18 18 20 22 22 21 22 23 25 25 27 28 27 26 25 25 26 26 26 25 25 23 20 20 20 18 16 15 13 13 14 14 13 12 11 10 10 11 12 13 14
2 2 3 3 2 2 0 2 2 2 2 3 3 3 2 2 2 1 2 2 2 3 3 3 4 5 5 5 6 6 5 5 6 5 4 6 8 8 10 13 15 16 16 16 18 20 21 21 21 22 22 22 23 23 23 23 25 25 24 24 26 26 25 25 25 25 23 21 19 17 17 16 15 13 13 14 13 13 13 12 12 12 13 14 15 15
1 3 2 2 3 2 3 5 5 3 4 4 2 2 1 1 3 3 1 1 2 4 3 3 4 5 4 4 6 7 6 5 6 7 5 5 6 7 9 13 15 16 16 18 20 22 23 22 21 21 21 20 22 23 23 24 24 22 21 23 25 25 23 24 25 25 23 21 18 15 14 14 14 13 12 12 12 12 12 13 13 14 15 16 16 17
2 3 2 2 3 1 3 4 3 3 4 5 3 2 2 2 1 2 4 4 5 6 5 5 5 4 4 5 6 7 7 5 5 7 7 6 6 7 9 13 15 16 17 19 21 22 23 22 22 21 20 21 23 25 25 25 23 21 21 23 24 24 24 24 25 23 22 20 18 15 14 13 12 11 11 11 11 12 12 13 14 15 16 17 17 18
3 2 2 3 3 1 4 4 3 2 1 4 4 2 2 2 2 4 4 4 4 5 6 6 6 5 5 6 6 7 7 5 5 6 7 6 6 9 12 15 15 16 17 18 19 20 20 19 20 21 21 22 24 25 24 24 22 21 21 22 22 24 25 24 23 22 20 20 18 16 14 12 11 11 10 11 11 12 13 14 15 15 17 18 18 18
4 5 5 5 4 4 7 7 5 4 2 4 4 2 1 2 3 4 3 3 4 4 5 7 7 6 5 5 6 8 7 6 7 8 6 6 8 12 15 17 17 17 17 18 18 18 18 18 20 20 21 23 24 24 23 23 22 22 21 21 22 25 25 24 22 21 20 19 19 17 15 12 11 10 10 10 11 12 13 15 15 16 17 19 19 20
Wind_Direction
80 103 188 205 218 222 210 199 194 182 147 133 135 155 194 205 245 245 235 208 162 164 227 210 209 238 230 221 208 195 197 210 212 204 206 212 215 207 184 189 204 208 211 198 193 192 186 182 182 181 180 179 180 185 186 184 181 177 175 171 161 158 158 153 149 149 149 147 145 143 139 134 131 129 123 117 111 99 87 76 62 52 48 44 44 48
47 110 230 221 212 207 200 197 183 155 112 99 148 190 229 216 244 243 218 196 164 180 235 202 193 237 235 228 214 189 195 211 213 206 206 208 212 204 182 191 200 197 186 176 180 179 172 171 173 173 173 173 175 179 184 184 179 177 177 171 161 158 159 156 153 153 154 155 154 147 141 137 135 132 128 122 115 103 92 76 61 54 51 48 49 54
332 268 249 239 187 103 115 171 169 174 213 246 182 171 256 236 261 281 263 182 172 198 243 181 191 239 260 243 223 206 206 215 216 211 210 208 209 204 189 191 188 176 172 174 173 165 161 163 166 168 170 173 176 179 183 184 178 176 177 171 163 160 161 159 157 157 158 159 156 146 142 140 136 133 130 123 116 109 95 77 63 59 57 54 53 55
250 248 249 252 148 120 121 150 141 136 220 227 192 171 248 250 251 297 303 179 162 184 204 165 190 264 290 268 243 227 221 239 240 226 224 213 216 214 197 187 179 175 177 175 170 160 157 159 162 166 168 171 176 179 183 183 179 178 180 173 164 162 164 162 161 161 160 157 150 143 142 142 136 133 130 122 116 109 92 76 68 65 62 58 56 57
232 240 250 349 51 129 152 155 143 152 256 258 217 197 223 248 229 230 265 114 116 359 120 114 51 304 270 247 251 236 222 254 253 233 228 219 221 216 188 182 184 179 174 170 167 160 157 159 164 168 169 172 177 180 184 185 183 182 181 175 165 164 167 167 165 163 160 155 149 143 141 138 134 132 132 125 117 105 88 78 73 71 66 63 63 62
246 248 232 311 299 172 195 226 174 168 216 291 243 212 216 241 245 172 124 95 77 284 231 123 73 286 277 247 246 233 205 240 237 220 227 221 208 204 192 185 184 181 174 169 165 161 162 164 165 167 170 174 178 181 186 189 188 185 180 174 166 166 172 173 170 168 164 160 158 153 149 145 138 134 133 129 120 108 93 85 83 80 75 71 69 65
253 257 187 241 263 263 267 263 201 157 146 300 250 205 204 219 166 136 144 122 127 235 234 155 167 264 305 270 247 221 212 244 243 228 226 216 206 205 199 187 178 177 171 165 163 161 164 165 163 167 173 176 178 181 186 189 190 185 180 173 167 170 178 175 172 172 171 167 165 162 158 154 149 142 136 132 123 111 103 98 94 90 84 76 70 63
219 231 215 228 246 247 254 262 221 151 135 253 233 168 171 197 172 156 164 170 179 211 308 143 146 274 298 277 269 204 211 253 259 247 233 208 208 207 197 187 177 175 169 163 164 164 168 168 167 171 175 176 176 179 184 186 186 183 178 172 170 176 180 176 175 177 176 172 169 164 159 156 154 148 140 134 125 117 114 109 103 96 87 77 66 56
205 195 210 209 216 229 229 222 197 152 157 246 225 169 182 217 198 169 167 185 179 94 319 261 158 122 269 279 332 67 220 253 254 249 240 212 204 203 194 185 175 171 167 163 164 167 169 169 171 173 171 171 174 177 181 181 178 177 175 170 171 177 177 175 180 180 176 175 171 165 160 153 149 147 141 136 128 124 124 116 110 102 86 73 59 47
231 209 198 181 187 217 228 214 177 161 199 245 208 109 32 42 69 121 145 140 67 96 237 232 181 175 264 279 327 50 240 247 241 245 244 216 201 197 187 175 167 162 159 161 162 164 167 170 173 170 162 164 172 176 177 173 170 170 170 169 170 173 173 173 177 176 175 176 172 168 164 155 148 146 142 137 130 129 128 118 114 104 85 68 53 42
275 263 170 156 180 199 220 218 177 183 208 247 8 17 25 25 40 53 70 87 80 257 252 223 182 183 264 276 247 191 216 228 221 238 244 207 188 187 175 167 163 156 155 156 154 158 163 167 167 159 154 162 172 174 170 166 167 168 167 166 166 167 168 167 170 175 176 175 174 172 168 160 152 148 144 138 133 133 127 118 115 104 86 70 54 47
316 314 218 231 209 176 185 234 220 209 199 101 39 57 27 349 20 35 4 51 127 247 269 236 163 157 248 258 243 224 235 239 216 233 235 191 179 177 165 162 158 155 156 153 154 158 157 158 157 151 151 163 169 166 164 166 167 162 158 160 163 165 167 165 168 174 173 172 173 172 169 162 154 150 145 137 135 135 125 117 115 106 92 78 68 66
304 257 263 292 249 165 149 230 311 12 74 109 107 84 69 313 350 5 306 200 204 243 269 216 144 140 241 250 258 249 248 252 235 237 213 154 167 163 153 153 151 154 157 156 158 158 156 156 151 147 153 164 163 158 162 165 153 141 144 158 163 163 166 166 167 169 168 168 169 167 164 158 151 148 142 134 135 135 126 119 116 109 100 88 82 81
296 296 303 295 273 189 152 168 233 244 110 141 148 127 134 157 119 268 268 274 256 257 280 232 175 196 279 262 260 254 252 249 240 236 170 149 160 152 145 145 147 154 158 160 159 157 160 155 147 149 155 156 146 148 159 148 128 131 147 163 161 154 159 163 163 164 163 163 163 162 158 153 148 145 137 134 137 136 130 121 116 113 107 96 91 91
199 311 257 188 241 188 171 186 180 159 159 180 162 138 143 150 163 225 229 219 251 267 306 284 191 184 224 252 257 260 282 284 249 211 139 142 147 140 140 143 147 156 158 160 157 159 158 150 150 150 142 131 133 155 157 135 135 155 160 158 152 147 153 157 158 159 158 157 157 154 151 147 146 142 136 137 139 137 133 123 119 118 112 102 98 98
145 264 249 235 231 161 179 201 158 129 150 231 145 114 167 186 168 202 198 182 198 183 268 264 230 210 216 261 298 325 343 354 19 107 112 123 133 131 138 147 151 156 157 158 158 159 154 151 151 141 132 139 155 163 153 140 155 167 155 147 147 147 151 154 154 156 155 153 151 147 146 145 144 141 139 141 141 138 135 128 123 121 115 111 108 104
125 268 273 298 278 191 182 178 160 159 181 193 137 170 223 176 133 127 246 283 76 182 261 255 257 292 318 306 321 12 20 18 26 68 110 128 133 132 140 150 154 156 156 157 156 152 150 149 145 137 140 151 160 157 149 151 163 162 147 146 148 147 151 153 153 152 151 149 146 144 145 144 144 144 144 145 144 140 134 126 122 119 119 120 116 107
152 273 284 250 240 256 194 131 144 200 150 132 190 205 189 93 92 105 154 359 37 231 275 309 256 294 337 295 312 3 19 12 14 42 99 118 124 127 135 146 153 154 153 152 148 147 149 146 140 137 141 153 162 160 153 154 160 156 150 152 152 151 154 154 152 150 149 147 143 141 144 144 145 145 144 144 143 139 132 123 120 118 119 122 118 108
155 270 290 247 223 286 21 89 29 322 86 149 185 177 119 126 228 76 138 187 52 238 282 312 301 271 211 235 297 323 235 133 26 54 106 122 129 132 139 149 154 151 149 151 150 152 151 145 140 137 143 160 168 160 151 153 158 155 153 154 154 154 153 151 150 147 146 146 141 141 145 147 148 146 140 138 141 139 131 121 117 111 109 118 121 112
132 138 290 282 258 301 12 68 202 278 340 83 132 84 43 148 164 163 149 162 176 199 266 311 327 278 228 219 244 271 232 171 144 137 138 144 147 148 150 153 156 154 153 154 152 152 148 142 141 143 150 161 162 151 150 154 154 151 150 152 153 151 148 147 147 146 145 145 141 142 148 152 152 148 140 138 141 139 130 122 115 107 102 109 115 113
110 125 251 290 321 340 321 300 211 185 159 123 149 196 281 110 132 167 91 97 140 150 184 267 302 271 253 211 209 260 239 179 168 161 160 161 152 150 153 152 154 155 152 152 149 147 142 137 139 145 151 154 150 148 149 148 147 148 149 151 153 150 147 147 148 147 146 145 144 145 150 154 154 151 145 143 144 142 135 130 123 113 103 100 100 101
170 159 196 292 334 328 256 252 200 171 167 162 170 186 183 149 125 149 299 314 96 119 162 171 263 267 261 219 234 254 214 181 178 163 155 151 143 143 149 148 150 151 149 149 146 140 135 132 135 142 145 145 147 147 144 146 149 148 148 151 154 152 150 151 152 150 147 147 148 148 152 156 156 154 153 151 148 145 143 139 135 127 112 101 96 93
147 127 134 266 261 253 264 266 189 179 181 156 154 162 149 133 127 154 230 261 111 78 138 127 254 266 263 267 266 256 184 164 169 154 140 139 142 143 147 146 145 148 148 144 139 131 130 131 134 139 140 143 146 144 144 148 148 145 148 152 153 153 154 155 155 152 150 151 152 151 156 160 159 157 156 154 149 146 146 145 145 143 130 113 99 93
137 116 140 273 293 298 300 317 331 177 146 109 70 62 128 150 148 158 185 182 139 152 143 102 272 268 285 322 325 348 119 119 126 138 138 144 147 145 151 151 142 143 144 140 134 128 129 133 136 140 143 145 144 141 144 146 144 145 150 152 153 155 156 157 156 154 153 153 153 155 160 162 162 161 160 157 151 146 144 145 147 150 148 132 111 99
188 151 125 53 353 344 338 348 350 343 36 81 279 321 145 144 110 113 130 80 102 187 156 132 232 259 283 350 31 68 96 108 121 137 143 147 148 147 152 151 140 137 139 139 135 132 135 139 143 144 145 145 143 144 147 146 145 148 150 152 157 158 158 158 157 156 155 154 157 163 163 163 162 163 163 160 155 148 138 134 135 139 144 139 122 110
157 147 124 121 134 163 247 277 279 286 338 333 339 346 338 125 120 134 135 82 113 197 146 148 216 264 298 54 73 85 110 121 133 143 146 145 144 145 147 148 144 138 140 142 139 139 143 147 148 147 146 146 146 149 150 148 149 150 149 153 158 158 158 159 158 157 156 157 163 168 167 166 165 166 167 164 156 147 135 131 136 140 140 133 122 114
104 138 149 143 163 181 189 215 225 157 108 326 352 0 343 131 124 114 102 122 179 165 184 222 212 272 311 105 122 136 140 141 148 148 150 147 143 144 145 146 143 138 142 143 139 143 148 150 151 149 147 148 150 151 151 151 151 152 151 153 156 158 159 160 161 160 159 160 166 169 168 168 168 168 166 161 151 140 129 125 129 130 130 128 120 101
89 145 165 145 181 202 187 226 258 106 121 240 328 353 349 108 107 94 108 186 149 116 285 258 194 218 276 202 165 178 162 158 166 160 156 153 150 149 146 145 142 141 145 143 143 149 151 151 151 148 148 149 149 150 152 153 153 155 155 155 158 160 163 164 165 163 162 162 164 164 163 161 162 163 160 155 148 140 131 125 123 122 123 126 124 103
106 144 162 130 295 327 5 339 351 83 101 73 49 7 9 53 85 99 141 180 134 134 246 247 176 203 247 206 183 189 174 169 168 154 149 152 150 145 143 144 145 148 153 152 154 156 153 153 153 149 149 149 149 151 151 152 154 156 157 159 161 163 166 168 169 169 167 165 162 161 158 156 156 158 158 158 154 149 147 140 132 126 121 115 107 98
110 108 166 130 42 11 3 358 25 54 71 47 21 354 32 71 91 103 128 176 141 179 250 206 183 228 243 202 187 178 158 152 140 134 148 161 156 146 145 149 150 156 162 162 162 162 158 157 153 150 151 152 152 154 152 153 158 159 160 163 164 165 168 170 172 174 172 168 164 163 161 161 161 161 163 168 168 165 162 152 139 127 115 102 83 79
100 107 226 113 70 10 352 18 28 11 84 84 27 358 33 60 70 77 86 121 95 335 323 85 156 263 269 200 158 139 134 135 139 150 163 167 160 151 152 157 159 164 170 170 168 164 159 155 152 153 156 157 157 157 156 159 163 163 164 166 167 169 171 173 175 177 177 174 170 169 168 171 173 172 172 173 172 171 168 158 147 133 122 106 79 82
85 111 8 70 81 337 330 39 37 16 53 64 15 349 2 20 46 91 122 161 181 206 44 49 333 273 266 155 136 138 145 150 158 164 166 168 170 168 167 167 168 172 174 173 169 163 159 158 158 160 162 161 160 161 163 165 165 164 166 169 172 174 175 178 179 179 180 179 176 174 175 178 180 178 176 174 172 173 175 171 156 132 119 105 89 118
102 119 117 86 95 265 297 41 51 41 49 23 302 284 292 302 276 268 281 205 193 161 129 160 248 243 182 152 152 156 164 171 174 171 170 171 174 178 179 175 175 179 178 174 170 166 166 165 165 166 166 166 167 168 170 170 167 168 171 172 175 176 176 180 182 182 182 182 181 180 179 180 184 182 178 179 183 184 183 180 166 139 119 103 113 218
93 101 125 123 117 210 298 16 38 54 78 241 242 207 211 233 228 252 262 244 234 197 149 200 241 194 164 173 175 175 179 181 177 174 174 172 173 179 185 183 182 182 180 176 171 169 170 169 169 171 172 172 172 172 173 172 170 171 173 175 177 177 177 181 183 185 185 185 186 186 182 182 186 187 185 186 191 191 186 185 179 161 140 108 202 252
81 86 119 112 107 147 7 33 53 144 227 246 272 259 217 209 188 199 243 254 237 216 200 248 256 184 179 190 187 175 173 156 152 170 176 177 181 179 179 185 186 183 182 179 174 174 174 171 170 173 175 173 172 171 170 169 170 172 175 177 179 178 179 182 184 185 186 187 189 190 187 185 187 190 191 190 192 193 190 188 185 175 176 214 256 262
121 115 120 74 88 134 88 70 130 239 259 277 306 302 217 174 138 140 284 280 240 196 189 220 230 190 178 188 159 135 119 102 121 168 181 182 186 184 184 188 186 183 184 182 177 176 177 175 173 172 172 171 171 171 170 170 173 176 176 179 180 178 178 182 183 185 186 187 188 191 190 189 190 193 194 192 193 196 194 195 195 193 209 244 270 273
125 130 114 78 98 136 124 133 254 295 297 280 288 272 198 152 135 137 191 279 252 197 166 164 176 176 164 151 135 124 109 94 97 230 209 189 189 194 195 191 188 189 189 185 183 181 178 177 174 170 169 170 171 173 172 173 174 175 174 175 176 175 176 180 184 187 188 188 190 193 193 191 194 198 198 195 196 198 201 206 208 207 220 254 276 279
89 138 150 141 149 114 103 87 347 10 255 240 242 255 241 155 150 137 117 293 266 213 165 153 163 172 158 139 139 133 112 90 285 245 210 190 192 195 195 200 197 190 177 171 175 176 175 172 167 166 168 168 170 173 173 172 172 169 168 169 172 172 176 184 190 191 190 191 192 195 196 195 196 199 200 197 198 202 207 209 207 211 231 262 280 283
47 52 108 113 117 117 111 120 168 192 239 243 230 249 270 151 137 105 60 314 268 208 165 153 160 175 166 150 152 141 113 114 263 254 201 184 190 188 182 191 178 142 126 147 164 167 171 167 162 166 169 166 168 172 172 171 169 166 164 167 172 175 181 189 195 194 194 195 195 196 199 198 195 195 196 195 196 200 202 200 202 218 246 266 279 287
36 27 60 100 134 153 127 128 199 217 247 256 238 250 250 134 109 83 50 279 262 209 175 161 163 178 171 149 152 153 146 182 241 262 203 181 184 183 179 178 156 136 145 165 167 163 168 168 165 168 169 167 169 172 171 169 167 166 166 169 173 179 186 193 198 198 199 201 198 196 198 198 193 192 192 193 196 197 196 198 206 227 254 270 282 290
26 22 72 126 142 148 138 139 253 251 234 239 246 242 185 112 86 92 206 239 235 201 198 176 165 173 163 152 165 188 189 200 254 273 198 166 169 176 157 127 109 111 125 138 144 151 161 167 169 170 170 171 172 170 169 169 167 167 169 170 175 183 190 196 199 201 203 203 200 198 200 199 197 196 194 194 198 199 199 207 221 239 260 275 282 283
126 75 61 102 115 129 138 131 274 267 240 221 240 242 143 123 151 212 223 230 185 183 212 197 171 170 166 170 179 176 157 327 345 346 157 152 156 138 93 81 78 83 100 121 142 158 160 163 171 171 169 171 171 169 170 170 167 168 170 172 178 186 192 195 199 200 200 200 200 202 204 203 204 205 202 198 199 207 214 220 231 246 262 270 272 272
157 138 134 172 148 115 73 72 88 240 244 221 56 9 96 150 205 216 214 325 182 179 189 199 185 175 177 186 177 107 74 46 46 77 116 122 112 97 95 104 117 128 138 146 156 163 158 157 172 176 170 170 171 171 171 169 166 168 170 174 182 188 192 196 197 194 192 194 198 202 203 204 208 211 209 203 202 210 225 233 237 246 259 267 270 274
148 135 166 205 181 123 100 146 203 216 237 260 116 193 222 225 209 184 147 55 293 178 170 189 205 197 187 180 153 106 78 63 75 96 108 107 106 108 117 133 143 144 146 151 156 161 159 159 170 176 171 171 173 173 172 169 165 165 170 177 184 188 191 194 192 188 189 193 196 196 195 199 209 214 210 207 207 212 224 236 245 252 262 268 273 276
206 182 171 171 174 160 169 208 227 226 243 267 228 215 248 290 258 163 144 136 208 191 172 178 202 202 174 146 128 109 90 93 107 113 112 112 116 121 127 133 137 142 147 150 155 163 164 164 168 168 165 169 172 172 173 170 166 166 172 180 187 189 190 190 188 188 191 195 196 196 195 197 207 215 214 211 213 218 224 234 246 255 263 270 274 277
257 195 141 110 178 212 194 215 250 289 298 305 296 242 259 320 324 177 151 154 224 198 170 168 185 178 150 137 129 114 120 136 124 110 110 110 111 119 124 127 138 149 151 149 155 164 164 161 162 159 157 164 171 173 173 171 171 174 178 182 186 189 189 188 188 191 194 195 198 202 203 201 205 215 219 218 220 226 232 239 248 256 264 272 275 277
285 157 102 75 113 159 199 291 301 310 289 298 318 304 307 9 355 256 192 225 233 175 148 140 133 129 130 135 132 126 135 142 127 116 117 116 117 123 127 132 144 153 155 156 158 158 154 152 154 156 157 161 167 169 170 172 177 181 182 182 186 189 189 189 193 196 198 200 204 208 209 206 206 214 223 227 230 234 238 243 247 255 264 271 275 278
199 125 102 78 96 142 222 258 279 287 268 260 254 249 273 357 351 354 41 134 109 101 99 96 109 121 125 126 128 130 136 141 136 133 131 122 125 129 131 139 148 151 153 157 157 154 153 154 156 158 158 157 160 167 174 179 184 187 186 186 188 189 190 194 198 200 202 205 207 207 206 204 207 216 226 231 233 233 237 240 246 255 264 269 273 277
135 104 136 120 68 9 256 250 284 327 313 301 282 235 236 241 269 44 56 77 91 93 89 81 85 101 115 124 131 130 131 141 142 136 133 131 132 131 132 139 146 147 148 152 156 158 159 158 156 156 156 158 166 175 182 185 188 191 192 192 190 190 193 198 201 204 207 207 205 204 202 201 207 217 225 229 231 235 240 246 253 262 268 271 272 275
111 117 140 105 80 316 248 221 179 135 263 282 278 253 221 192 136 92 76 81 96 109 113 101 86 80 95 117 133 132 133 145 148 138 136 137 135 134 136 139 141 142 144 149 154 158 157 154 154 157 161 169 178 183 187 189 192 196 198 197 194 193 196 199 202 206 209 207 204 203 204 204 206 215 225 234 242 248 252 257 262 266 271 275 276 278
149 167 168 145 156 220 231 213 175 135 168 241 243 225 191 147 119 110 112 117 122 133 132 120 111 103 98 110 133 140 140 146 146 139 131 128 136 141 144 146 144 142 146 151 154 153 150 152 160 167 172 178 184 188 191 194 197 199 201 202 200 197 198 201 204 207 209 208 206 205 206 208 211 220 233 244 253 260 265 270 274 274 275 278 279 280